{"data":{"norad_id":54374,"intl_designator":"2022-160C","name":"YAOGAN-36 03B","alt_names":[],"object_type":"PAYLOAD","status":"ACTIVE","operator":null,"country":"PRC","launch_date":"2022-11-27","launch_site_code":"XICLF","launch_vehicle":null,"mission":null,"orbit_class":"UNKNOWN","rcs_meters":null,"size_class":null,"mass_kg":null,"dimensions":null,"purposes":[],"wikipedia_slug":null,"has_3d_model":false,"image_url":null,"decayed_at":null,"tle_current":{"epoch":"2026-09-21T22:50:27.593664Z","epoch_age_seconds":36896,"freshness":"FRESH","line1":"1 54374U 22160C   26264.95170826  .00004128  00000+0  17789-3 0  9991","line2":"2 54374  34.9915 118.6515 0009520 308.0098  51.9756 15.21976427212470","mean_motion":15.21976427,"eccentricity":0.000952,"inclination_deg":34.9915,"raan_deg":118.6515,"arg_perigee_deg":308.0098,"mean_anomaly_deg":51.9756,"bstar":0.00017789,"rev_number":21247,"period_min":94.613817563417,"perigee_km":493.33179732397,"apogee_km":506.42754106211,"semimajor_km":6878.016669193,"source":"CELESTRAK","updated_at":"2026-09-22T09:00:25.145063Z"}}}